TimeEDT,TemperatureF,Dew PointF,Humidity,Sea Level PressureIn,VisibilityMPH,Wind Direction,Wind SpeedMPH,Gust SpeedMPH,PrecipitationIn,Events,Conditions,WindDirDegrees,DateUTC
12:53 AM,46.0,44.1,93,30.33,10.0,Calm,Calm,-,N/A,,Clear,0,2013-05-25 04:53:00
1:53 AM,45.0,44.1,97,30.33,10.0,NE,3.5,-,N/A,,Clear,50,2013-05-25 05:53:00
2:53 AM,44.1,44.1,100,30.34,10.0,Calm,Calm,-,N/A,,Clear,0,2013-05-25 06:53:00
3:53 AM,43.0,42.1,97,30.33,9.0,NE,3.5,-,N/A,,Clear,50,2013-05-25 07:53:00
4:53 AM,42.1,42.1,100,30.34,10.0,Calm,Calm,-,N/A,,Clear,0,2013-05-25 08:53:00
5:53 AM,43.0,42.1,97,30.35,10.0,Calm,Calm,-,N/A,,Clear,0,2013-05-25 09:53:00
6:53 AM,42.1,42.1,100,30.37,8.0,Calm,Calm,-,N/A,,Clear,0,2013-05-25 10:53:00
7:53 AM,48.0,44.1,86,30.38,10.0,Calm,Calm,-,N/A,,Clear,0,2013-05-25 11:53:00
8:53 AM,52.0,43.0,71,30.40,10.0,Calm,Calm,-,N/A,,Clear,0,2013-05-25 12:53:00
9:53 AM,54.0,43.0,66,30.41,10.0,South,3.5,-,N/A,,Clear,180,2013-05-25 13:53:00
10:53 AM,55.9,42.1,60,30.42,10.0,SW,3.5,-,N/A,,Clear,230,2013-05-25 14:53:00
11:53 AM,59.0,43.0,55,30.39,10.0,Calm,Calm,-,N/A,,Scattered Clouds,0,2013-05-25 15:53:00
12:53 PM,61.0,44.1,54,30.38,10.0,Variable,5.8,-,N/A,,Overcast,0,2013-05-25 16:53:00
1:53 PM,62.1,42.1,48,30.36,10.0,SW,4.6,-,N/A,,Mostly Cloudy,220,2013-05-25 17:53:00
2:53 PM,64.0,43.0,46,30.35,10.0,Calm,Calm,-,N/A,,Scattered Clouds,0,2013-05-25 18:53:00
3:53 PM,64.0,42.1,45,30.34,10.0,SW,6.9,-,N/A,,Mostly Cloudy,220,2013-05-25 19:53:00
4:53 PM,66.0,41.0,40,30.32,10.0,North,5.8,-,N/A,,Clear,350,2013-05-25 20:53:00
5:53 PM,64.0,36.0,35,30.30,10.0,North,3.5,-,N/A,,Clear,360,2013-05-25 21:53:00
6:53 PM,64.0,41.0,43,30.28,10.0,Calm,Calm,-,N/A,,Overcast,0,2013-05-25 22:53:00
7:53 PM,62.1,46.0,56,30.24,10.0,ENE,3.5,-,N/A,,Overcast,70,2013-05-25 23:53:00
8:53 PM,57.9,51.1,78,30.26,10.0,Calm,Calm,-,N/A,,Overcast,0,2013-05-26 00:53:00
9:53 PM,57.0,48.9,74,30.28,10.0,Calm,Calm,-,N/A,,Overcast,0,2013-05-26 01:53:00
10:53 PM,57.9,46.9,67,30.30,10.0,Calm,Calm,-,N/A,,Overcast,0,2013-05-26 02:53:00
11:53 PM,55.9,51.1,84,30.29,10.0,NE,3.5,-,0.00,,Overcast,50,2013-05-26 03:53:00